Hourly Data Report for October 06, 2017

All times are specified in Local Standard Time (LST). Add 1 hour to adjust for Daylight Saving Time where and when it is observed.

SAINT JOHN A
NEW BRUNSWICK

45°18'58.000" N
65°53'24.000" W
108.80 m
8104901
71609
YSJ

Download Data

Hourly Data (October 2017)
Hourly Data Report for October 6, 2017
Temp Definition
°C
Dew Point Temp Definition
°C
Rel Hum Definition
%
Wind Dir Definition
10's deg

Wind Spd Definition
km/h
Visibility Definition
km
Stn Press Definition
kPa
Hmdx Definition


Wind Chill Definition


Weather Definition


TIME
00:00 Legend Double Dagger 10.3 9.5 95 19 10 24.1 100.03     LegendNANA
01:00 Legend Double Dagger 11.7 11.0 95 19 7 24.1 100.10     LegendNANA
02:00 Legend Double Dagger 10.0 9.6 97 36 1 24.1 100.08     Mostly Cloudy
03:00 Legend Double Dagger 9.5 9.3 99 22 6 24.1 100.05     LegendNANA
04:00 Legend Double Dagger 7.2 6.8 97   0 24.1 100.10     LegendNANA
05:00 Legend Double Dagger 8.2 7.3 94 36 1 24.1 100.16     Mostly Cloudy
06:00 Legend Double Dagger 9.1 7.5 89 31 4 24.1 100.24     LegendNANA
07:00 Legend Double Dagger 5.8 5.4 97 11 3 24.1 100.31     LegendNANA
08:00 Legend Double Dagger 9.1 8.4 95 36 3 24.1 100.38     Mostly Cloudy
09:00 Legend Double Dagger 13.6 7.4 66 29 10 24.1 100.40     LegendNANA
10:00 Legend Double Dagger 15.3 6.1 54 31 6 24.1 100.38     LegendNANA
11:00 Legend Double Dagger 16.6 6.2 50 29 12 24.1 100.34     Mainly Clear
12:00 Legend Double Dagger 17.6 6.7 48 24 14 24.1 100.34     LegendNANA
13:00 Legend Double Dagger 17.0 8.2 56 21 22 24.1 100.30     LegendNANA
14:00 Legend Double Dagger 15.1 7.2 59 22 24 24.1 100.29     Mostly Cloudy
15:00 Legend Double Dagger 13.4 8.2 71 22 22 24.1 100.33     LegendNANA
16:00 Legend Double Dagger 13.1 9.4 78 21 22 24.1 100.30     LegendNANA
17:00 Legend Double Dagger 13.1 9.8 80 22 14 24.1 100.32     Mostly Cloudy
18:00 Legend Double Dagger 12.1 9.8 86 24 6 24.1 100.38     LegendNANA
19:00 Legend Double Dagger 9.2 8.5 96 36 2 24.1 100.43     LegendNANA
20:00 Legend Double Dagger 6.4 6.1 98 0 1 24.1 100.47     Mainly Clear
21:00 Legend Double Dagger 4.6 4.1 96   0 16.1 100.52     LegendNANA
22:00 Legend Double Dagger 3.7 3.3 98 36 2 0.8 100.62     Fog
23:00 Legend Double Dagger 5.4 5.3 99 36 1 1.0 100.67     Fog

Notes on Data Quality.

Legend

  • E = Estimated
  • M = Missing
  • NA = Not Available
  • ‡ = Partner data that is not subject to review by the National Climate Archives
Date modified: